Weather History for Palma de Mallorca, Spain

Change the Weather History Date:

Saturday, December 1, 2012

  Actual Average Record
Temperature  
Mean Temperature 48 °F -  
Max Temperature 53 °F 59 °F 68 °F (2004)
Min Temperature 44 °F 41 °F 32 °F (2005)
Degree Days  
Heating Degree Days 16    
Moisture  
Dew Point 40 °F    
Average Humidity 69    
Maximum Humidity 87    
Minimum Humidity 46    
Precipitation  
Precipitation 0.00 in 0.06 in - ()
Sea Level Pressure  
Sea Level Pressure 29.78 in    
Wind  
Wind Speed 8 mph ()    
Max Wind Speed 25 mph    
Max Gust Speed 36 mph    
Visibility 6.8 miles    
Events      
Averages and records for this station are not official NWS values.
T = Trace of Precipitation, MM = Missing Value Source: Averaged Metar Reports

Daily Weather History Graph

Daily Weather History Graph

Search for Another Location

Airport:

Trip Planner

Search our weather history database for the weather conditions in past years. The results will help you decide how hot, cold, wet, or windy it might be!

Date:

Astronomy

Dec. 01, 2012 Rise Set
Actual Time 7:50 AM CET 5:25 PM CET
Civil Twilight 7:20 AM CET 5:55 PM CET
Nautical Twilight 6:47 AM CET 6:28 PM CET
Astronomical Twilight 6:15 AM CET 7:01 PM CET
Moon 8:00 PM CET (12/1) 9:53 AM CET (12/1)
Length of Visible Light 10h 34m
Length of Day
9h 34m
Waning Gibbous, 93% of the Moon is Illuminated
Dec 1
Waning Gibbous
Dec 6
Last Quarter
Dec 13
New
Dec 20
First Quarter
Dec 28
Full

Hourly Weather History & Observations

Time (CET) Temp. Windchill Dew Point Humidity Pressure Visibility Wind Dir Wind Speed Gust Speed Precip Events Conditions
12:00 AM 44.6 °F - 41.0 °F 87% 29.71 in 6.2 mi Calm Calm - N/A   Partly Cloudy
12:30 AM 44.6 °F - 41.0 °F 87% 29.71 in 6.2 mi ENE 1.2 mph - N/A   Partly Cloudy
1:00 AM 45 °F - 39 °F 71% 29.73 in 12 mi SE 4.6 mph - -   Scattered Clouds
1:00 AM 46.4 °F 45.2 °F 41.0 °F 81% 29.71 in 6.2 mi ESE 3.5 mph - N/A   Partly Cloudy
1:30 AM 46.4 °F - 41.0 °F 81% 29.71 in 6.2 mi Variable 2.3 mph - N/A   Partly Cloudy
2:00 AM 46.4 °F - 42.8 °F 87% 29.71 in 6.2 mi ENE 2.3 mph - N/A   Partly Cloudy
2:30 AM 46.4 °F - 41.0 °F 81% 29.71 in 6.2 mi Variable 1.2 mph - N/A   Partly Cloudy
3:00 AM 46.4 °F - 41.0 °F 81% 29.71 in 6.2 mi Calm Calm - N/A   Partly Cloudy
3:30 AM 46.4 °F - 41.0 °F 81% 29.71 in 6.2 mi Variable 1.2 mph - N/A   Partly Cloudy
4:00 AM 46.4 °F - 41.0 °F 81% 29.71 in 6.2 mi Variable 1.2 mph - N/A   Partly Cloudy
4:30 AM 48.2 °F - 41.0 °F 76% 29.71 in 6.2 mi NE 9.2 mph - N/A   Partly Cloudy
5:00 AM 48.2 °F - 41.0 °F 76% 29.71 in 6.2 mi ENE 11.5 mph - N/A   Partly Cloudy
5:30 AM 48.2 °F - 41.0 °F 76% 29.71 in 6.2 mi NE 9.2 mph - N/A   Partly Cloudy
6:00 AM 48.2 °F - 41.0 °F 76% 29.71 in 6.2 mi NE 9.2 mph - N/A   Partly Cloudy
6:30 AM 50.0 °F - 41.0 °F 71% 29.71 in 6.2 mi NE 8.1 mph - N/A   Partly Cloudy
7:00 AM 49 °F - 38 °F 56% 29.73 in 9 mi ENE 8.1 mph - -   Scattered Clouds
7:00 AM 50.0 °F - 41.0 °F 71% 29.71 in 6.2 mi ENE 6.9 mph - N/A   Partly Cloudy
7:30 AM 50.0 °F - 41.0 °F 71% 29.74 in 6.2 mi NE 9.2 mph - N/A   Partly Cloudy
8:00 AM 50.0 °F - 42.8 °F 76% 29.74 in 6.2 mi ENE 8.1 mph - N/A   Partly Cloudy
8:30 AM 50.0 °F - 42.8 °F 76% 29.74 in 6.2 mi NE 9.2 mph - N/A   Partly Cloudy
9:00 AM 51.8 °F - 42.8 °F 71% 29.74 in 6.2 mi NE 10.4 mph - N/A   Scattered Clouds
9:30 AM 51.8 °F - 41.0 °F 67% 29.74 in 6.2 mi NE 11.5 mph - N/A   Scattered Clouds
10:00 AM 51.8 °F - 41.0 °F 67% 29.77 in 6.2 mi ENE 15.0 mph - N/A   Scattered Clouds
10:30 AM 53.6 °F - 41.0 °F 62% 29.77 in 6.2 mi ENE 18.4 mph - N/A   Partly Cloudy
10:50 AM 53.6 °F - 41.0 °F 62% 29.77 in 6.2 mi ENE 19.6 mph 31.1 mph N/A   Partly Cloudy
11:00 AM 53.6 °F - 41.0 °F 62% 29.77 in 6.2 mi ENE 18.4 mph 29.9 mph N/A   Partly Cloudy
11:30 AM 53.6 °F - 41.0 °F 62% 29.77 in 6.2 mi ENE 21.9 mph - N/A   Partly Cloudy
12:00 PM 53.6 °F - 41.0 °F 62% 29.77 in 6.2 mi ENE 25.3 mph - N/A   Partly Cloudy
12:30 PM 53.6 °F - 41.0 °F 62% 29.77 in 6.2 mi NE 24.2 mph 35.7 mph N/A   Partly Cloudy
1:00 PM 52 °F - 37 °F 46% 29.78 in 19 mi NE 25.3 mph - -   Scattered Clouds
1:00 PM 53.6 °F - 41.0 °F 62% 29.77 in 6.2 mi ENE 21.9 mph 33.4 mph N/A   Partly Cloudy
1:30 PM 53.6 °F - 41.0 °F 62% 29.77 in 6.2 mi ENE 23.0 mph 34.5 mph N/A   Partly Cloudy
2:00 PM 53.6 °F - 41.0 °F 62% 29.77 in 6.2 mi ENE 20.7 mph - N/A   Partly Cloudy
2:30 PM 51.8 °F - 41.0 °F 67% 29.77 in 6.2 mi ENE 18.4 mph - N/A   Partly Cloudy
3:00 PM 51.8 °F - 39.2 °F 62% 29.77 in 6.2 mi NE 23.0 mph 35.7 mph N/A   Partly Cloudy
3:30 PM 51.8 °F - 39.2 °F 62% 29.77 in 6.2 mi NE 20.7 mph - N/A   Partly Cloudy
4:00 PM 51.8 °F - 41.0 °F 67% 29.80 in 6.2 mi NE 19.6 mph 32.2 mph N/A   Partly Cloudy
4:30 PM 51.8 °F - 41.0 °F 67% 29.80 in 6.2 mi NE 19.6 mph - N/A   Partly Cloudy
5:00 PM 51.8 °F - 39.2 °F 62% 29.80 in 6.2 mi NE 15.0 mph - N/A   Partly Cloudy
5:30 PM 50.0 °F - 39.2 °F 66% 29.83 in 6.2 mi NE 13.8 mph - N/A   Partly Cloudy
6:00 PM 50.0 °F - 39.2 °F 66% 29.83 in 6.2 mi NE 15.0 mph - N/A   Partly Cloudy
6:30 PM 50.0 °F - 39.2 °F 66% 29.83 in 6.2 mi NE 9.2 mph - N/A   Partly Cloudy
7:00 PM 48 °F - 36 °F 52% 29.86 in 16 mi NE 11.5 mph - -   Scattered Clouds
7:00 PM 50.0 °F - 39.2 °F 66% 29.86 in 6.2 mi NNE 9.2 mph - N/A   Partly Cloudy
7:30 PM 48.2 °F - 39.2 °F 71% 29.86 in 6.2 mi NNE 8.1 mph - N/A   Partly Cloudy
8:00 PM 50.0 °F - 37.4 °F 62% 29.89 in 6.2 mi NNE 10.4 mph - N/A   Partly Cloudy
8:30 PM 48.2 °F - 39.2 °F 71% 29.89 in 6.2 mi NNE 5.8 mph - N/A   Partly Cloudy
9:00 PM 48.2 °F - 37.4 °F 66% 29.89 in 6.2 mi NNE 10.4 mph - N/A   Partly Cloudy
9:30 PM 48.2 °F - 37.4 °F 66% 29.89 in 6.2 mi NNE 6.9 mph - N/A   Partly Cloudy
10:00 PM 48.2 °F - 37.4 °F 66% 29.92 in 6.2 mi NE 11.5 mph - N/A   Partly Cloudy
10:30 PM 48.2 °F - 37.4 °F 66% 29.92 in 6.2 mi NNE 12.7 mph - N/A   Partly Cloudy
11:00 PM 48.2 °F - 35.6 °F 62% 29.92 in 6.2 mi NNE 9.2 mph - N/A   Partly Cloudy
11:30 PM 48.2 °F - 35.6 °F 62% 29.92 in 6.2 mi NNE 12.7 mph - N/A   Partly Cloudy